Regional Weather Roundup
Issued by NWS

Home | Current Version | Previous Version | Text Only | Print | Product List | Glossary On
Versions: 1 2 3 4 5 6 7 8 9 10 11 12 13 14 15 16 17 18 19 20 21 22 23 24 25 26 27 28
000
ASUS45 KSLC 221210
RWRUT

UTAH REGIONAL WEATHER ROUNDUP
NATIONAL WEATHER SERVICE SALT LAKE CITY UT
600 AM MDT TUE MAY 22 2018

UTZ001>011-023>025-221300-

NORTHERN UTAH

CITY           SKY/WX    TMP DP  RH WIND       PRES   REMARKS
BRIGHAM CITY   MOCLDY    54  44  69 SW6       29.88S
HILL AFB       MOCLDY    54  44  67 SE8       29.89S
LOGAN          MOCLDY    46  41  82 W3        29.92F
OGDEN          MOCLDY    56  41  57 S9        29.88S
SALT LAKE CITY MOCLDY    56  45  66 S6        29.88S
TOOELE VALLEY  PTCLDY    46  43  87 S8        29.90S
WENDOVER       MOCLDY    59  44  57 W6        29.90F
HEBER CITY     PTSUNNY   41  36  81 CALM      29.96R
WEST JORDAN    PTCLDY    49  45  83 SW3       29.90S

$$

UTZ011>015-024>027-221300-

CENTRAL/NORTHEAST UTAH

CITY           SKY/WX    TMP DP  RH WIND       PRES   REMARKS
PROVO AIRPORT  PTCLDY    51  43  74 SE6       29.91S
MOAB/CANYONLAN CLOUDY    68  37  32 SE9       29.84S
DELTA          MOCLDY    52  41  66 N7        29.90S
PRICE          CLOUDY    63  31  30 E13       29.91F
ROOSEVELT      CLOUDY    48  34  57 W3        29.93R
VERNAL         CLOUDY    53  35  50 W7        29.91R

$$

UTZ013>016-019>022-027-221300-

SOUTHERN UTAH

CITY           SKY/WX    TMP DP  RH WIND       PRES   REMARKS
BRYCE CANYON   PTCLDY    44  23  43 SE12      30.01S
CEDAR CITY     MOCLDY    54  29  38 SE12      29.90F
MILFORD        MOCLDY    47  32  56 SW8       29.88R
ST GEORGE      PTSUNNY   67  36  31 SE7       29.80R
HANKSVILLE     CLOUDY    63  32  31 E7        29.87R
BLANDING         N/A     54  37  51 E3        30.06S

$$

REGIONAL REPORTS     COLORADO/ARIZONA

CITY           SKY/WX    TMP DP  RH WIND       PRES   REMARKS
CRAIG, CO      MOCLDY    39  35  86 CALM      29.99S
GRAND JUNCTION PTCLDY    58  35  42 SE13      29.90R
RIFLE, CO      CLEAR     48  34  58 S3        29.96R
MONTROSE, CO   PTCLDY    51  32  48 S6        30.00R
CORTEZ, CO     MOCLDY    60  40  47 SW5       30.01R
COLORADO CITY    N/A     52  34  50 E7        29.92R
PAGE, AZ       CLOUDY    68  22  17 SE3       29.85R
GRAND CANYON   PTCLDY    35  18  49 CALM      29.98S
KINGMAN, AZ    MOCLDY    58  34  40 W3        29.83R
FLAGSTAFF, AZ  MOCLDY    35  20  54 CALM      30.01S

$$

REGIONAL REPORTS    NEVADA/IDAHO/WYOMING

CITY           SKY/WX    TMP DP  RH WIND       PRES   REMARKS
LAS VEGAS, NV  MOCLDY    68  38  33 S3        29.75R
ELY, NY        PTCLDY    35  34  96 S8        29.98S WCI  29
ELKO, NV       MOCLDY    47  43  86 CALM      29.94S
POCATELLO, ID  CLOUDY    51  46  83 E7        29.95F
BURLEY, ID     MOCLDY    53  46  77 CALM      29.92R
FORT BRIDGER,    N/A     43  37  80 SW6       30.06S
EVANSTON, WY   MOCLDY    46  39  76 CALM      30.02S
ROCK SPRINGS,  CLOUDY    48  39  71 E9        30.02S
KEMMERER, WY   MOCLDY    45  34  65 N13       30.03F

$$




USA.gov is the U.S. government's official web portal to all federal, state and local government web resources and services.